Terug naar catalogus

STARLINK-6064

ActiefCommunicatieVLEO
NORAD 56805·PAYLOAD·🇺🇸 United States

Gelanceerd May 31, 2023 vanaf Vandenberg Space Force Base

Loading…

Volgende Passages (komende 24 uur)

TLE

VersSource: CelesTrak SupGP

Epoch: Sep 15, 2026, 01:30 UTC

1 56805C 23078AQ  26258.06298611 -.00031005  00000+0 -25982-2 0  2586
2 56805  70.0017 206.9279 0003347 268.9761 353.7153 14.98347218    17

Volg STARLINK-6064 in realtime met AllMySat

Download on the App Store